User: anonymous   Login
Location: Unspecified
(0.0000°N, 0.0000°E)
Time: 08:16:49
(UTC+00:00)
Language:

SO-50 - Orbit

View from above orbital plane
View from above orbital plane
View from above satellite
View from above satellite

Ground track
Ground track

The orbit data is extracted from the following two-line orbital elements,

1 27607U 02058C   18347.89184600 -.00000020 +00000-0 +18052-4 0  9999
2 27607 064.5553 260.6914 0079648 292.0137 067.2517 14.75504894859342
Epoch (UTC): 13 December 2018 21:24:15
Eccentricity: 0.0079648
inclination: 64.5553°
perigee height: 587 km
apogee height: 699 km
right ascension of ascending node: 260.6914°
argument of perigee: 292.0137°
revolutions per day: 14.75504894
mean anomaly at epoch: 67.2517°
orbit number at epoch: 85934

The dashed part of the orbit path shows where the satellite is in the earth's shadow,  

DLR